timestamp,surface_pressure_avg,surface_temp_avg,battery_voltage,lat,long
2021-02-11 00:09:01+00:00,348.8613,1.76,12.73,47.84626,-54.09684
2021-02-11 00:19:01+00:00,347.80800000000005,1.77,12.65,47.84626,-54.09684
2021-02-11 00:29:01+00:00,340.588,1.72,12.65,47.84626,-54.09684
2021-02-11 00:39:01+00:00,341.2047,1.73,12.65,47.84626,-54.09684
2021-02-11 00:49:01+00:00,340.5563,1.77,12.65,47.84626,-54.09684
2021-02-11 00:59:01+00:00,331.3014,1.77,12.65,47.84626,-54.09684
2021-02-11 01:09:01+00:00,324.6863,1.77,12.65,47.84626,-54.09684
2021-02-11 01:19:01+00:00,324.2147,1.78,12.65,47.84626,-54.09684
2021-02-11 01:29:01+00:00,319.8697,1.79,12.65,47.84626,-54.09684
2021-02-11 01:39:01+00:00,305.003,1.7,12.65,47.84626,-54.09684
2021-02-11 01:49:01+00:00,297.3364,1.7,12.65,47.84626,-54.09684
2021-02-11 01:59:01+00:00,292.8464,1.7,12.65,47.84626,-54.09684
2021-02-11 02:09:01+00:00,281.1497,1.7,12.65,47.84626,-54.09684
2021-02-11 02:19:01+00:00,271.0897,1.7,12.65,47.84626,-54.09684
2021-02-11 02:29:01+00:00,268.7631,1.7,12.65,47.84626,-54.09684
2021-02-11 02:39:01+00:00,262.7481,1.7,12.65,47.84626,-54.09684
2021-02-11 02:49:01+00:00,248.7564,1.7,12.65,47.84626,-54.09684
2021-02-11 02:59:01+00:00,244.0098,1.7,12.65,47.84626,-54.09684
2021-02-11 03:09:01+00:00,242.9114,1.7,12.65,47.84626,-54.09684
2021-02-11 03:19:01+00:00,232.3681,1.7,12.57,47.84626,-54.09684
2021-02-11 03:29:01+00:00,221.4865,1.71,12.57,47.84626,-54.09684
2021-02-11 03:39:01+00:00,220.9147,1.75,12.57,47.84626,-54.09684
2021-02-11 03:49:01+00:00,222.6431,1.78,12.57,47.84626,-54.09684
2021-02-11 03:59:01+00:00,213.7214,1.76,12.57,47.84626,-54.09684
2021-02-11 04:09:01+00:00,203.1248,1.74,12.57,47.84626,-54.09684
2021-02-11 04:19:01+00:00,203.1414,1.77,12.57,47.84626,-54.09684
2021-02-11 04:29:01+00:00,203.3081,1.79,12.57,47.84626,-54.09684
2021-02-11 04:39:01+00:00,195.0848,1.79,12.57,47.84626,-54.09684
2021-02-11 04:49:01+00:00,188.0665,1.74,12.57,47.84626,-54.09684
2021-02-11 04:59:01+00:00,186.5748,1.77,12.57,47.84626,-54.09684
2021-02-11 05:09:01+00:00,183.3665,1.8,12.57,47.84626,-54.09684
2021-02-11 05:19:01+00:00,179.9482,1.8,12.57,47.84626,-54.09684
2021-02-11 05:29:01+00:00,178.7715,1.81,12.57,47.84626,-54.09684
2021-02-11 05:39:01+00:00,181.0631,1.89,12.57,47.84626,-54.09684
2021-02-11 05:49:01+00:00,189.6765,1.9,12.57,47.84626,-54.09684
2021-02-11 05:59:01+00:00,193.9515,1.9,12.57,47.84626,-54.09684
2021-02-11 06:09:01+00:00,195.1448,1.9,12.57,47.84626,-54.09684
2021-02-11 06:19:01+00:00,199.7798,1.92,12.57,47.84626,-54.09684
2021-02-11 06:29:01+00:00,202.6065,1.97,12.57,47.84626,-54.09684
2021-02-11 06:39:01+00:00,205.1381,1.99,12.57,47.84626,-54.09684
2021-02-11 06:49:01+00:00,212.7797,2.0,12.57,47.84626,-54.09684
2021-02-11 06:59:01+00:00,219.1198,1.99,12.57,47.84626,-54.09684
2021-02-11 07:09:01+00:00,220.6964,1.9,12.57,47.84626,-54.09684
2021-02-11 07:19:01+00:00,226.3481,1.9,12.57,47.84626,-54.09684
2021-02-11 07:29:01+00:00,234.5547,1.94,12.57,47.84626,-54.09684
2021-02-11 07:39:01+00:00,240.3047,1.9,12.57,47.84626,-54.09684
2021-02-11 07:49:01+00:00,247.6397,1.9,12.57,47.84626,-54.09684
2021-02-11 07:59:01+00:00,253.9348,1.9,12.57,47.84626,-54.09684
2021-02-11 08:09:01+00:00,255.888,1.9,12.57,47.84626,-54.09684
2021-02-11 08:19:01+00:00,256.9347,1.89,12.57,47.84626,-54.09684
2021-02-11 08:29:01+00:00,264.5047,1.89,12.57,47.84626,-54.09684
2021-02-11 08:39:01+00:00,273.2047,1.9,12.57,47.84626,-54.09684
2021-02-11 08:49:01+00:00,278.0231,1.6,12.57,47.84626,-54.09684
2021-02-11 08:59:01+00:00,284.4014,1.7,12.57,47.84626,-54.09684
2021-02-11 09:09:01+00:00,293.4113,1.7,12.57,47.84626,-54.09684
2021-02-11 09:19:01+00:00,299.6147,1.7,12.57,47.84626,-54.09684
2021-02-11 09:29:01+00:00,306.0246,1.7,12.57,47.84626,-54.09684
2021-02-11 09:39:01+00:00,316.7847,1.7,12.57,47.84626,-54.09684
2021-02-11 09:49:01+00:00,324.4663,1.71,12.57,47.84626,-54.09684
2021-02-11 09:59:01+00:00,328.0629,1.8,12.57,47.84626,-54.09684
2021-02-11 10:09:01+00:00,333.1329,1.82,12.57,47.84626,-54.09684
2021-02-11 10:19:01+00:00,344.3113,1.86,12.49,47.84626,-54.09684
2021-02-11 10:29:01+00:00,348.083,1.85,12.49,47.84626,-54.09684
2021-02-11 10:39:01+00:00,348.713,1.83,12.49,47.84626,-54.09684
2021-02-11 10:49:01+00:00,355.3496,1.85,12.49,47.84626,-54.09684
2021-02-11 10:59:01+00:00,361.8547,1.84,12.49,47.84626,-54.09684
2021-02-11 11:09:01+00:00,362.8613,1.82,12.49,47.84626,-54.09684
2021-02-11 11:19:01+00:00,361.7913,1.8,12.49,47.84626,-54.09684
2021-02-11 11:29:01+00:00,366.17800000000005,1.8,12.49,47.84626,-54.09684
2021-02-11 11:39:01+00:00,367.2346,1.8,12.49,47.84626,-54.09684
2021-02-11 11:49:01+00:00,364.9147,1.8,12.49,47.84626,-54.09684
2021-02-11 11:59:01+00:00,367.3397,1.83,12.49,47.84626,-54.09684
2021-02-11 12:09:01+00:00,371.4346,1.82,12.49,47.84626,-54.09684
2021-02-11 12:19:01+00:00,371.1729,1.8,12.57,47.84626,-54.09684
2021-02-11 12:29:01+00:00,364.2646,1.8,12.57,47.84626,-54.09684
2021-02-11 12:39:01+00:00,359.8279,1.8,12.57,47.84626,-54.09684
2021-02-11 12:49:01+00:00,359.2679,1.79,12.57,47.84626,-54.09684
2021-02-11 12:59:01+00:00,357.9764,1.75,12.57,47.84626,-54.09684
2021-02-11 13:09:01+00:00,352.3679,1.7,12.57,47.84626,-54.09684
2021-02-11 13:19:01+00:00,348.7864,1.7,12.65,47.84626,-54.09684
2021-02-11 13:29:01+00:00,345.2063,1.7,12.65,47.84626,-54.09684
2021-02-11 13:39:01+00:00,342.5063,1.7,12.65,47.84626,-54.09684
2021-02-11 13:49:01+00:00,337.8913,1.69,12.65,47.84626,-54.09684
2021-02-11 13:59:01+00:00,332.6195,1.67,12.65,47.84626,-54.09684
2021-02-11 14:09:01+00:00,324.2147,1.65,12.65,47.84626,-54.09684
2021-02-11 14:19:01+00:00,313.5431,1.6,12.97,47.84626,-54.09684
2021-02-11 14:29:01+00:00,305.8397,1.6,12.97,47.84626,-54.09684
2021-02-11 14:39:01+00:00,295.2297,1.6,12.97,47.84626,-54.09684
2021-02-11 14:49:01+00:00,286.3563,1.6,12.97,47.84626,-54.09684
2021-02-11 14:59:01+00:00,279.2564,1.6,12.97,47.84626,-54.09684
2021-02-11 15:09:01+00:00,269.9214,1.59,12.97,47.84626,-54.09684
2021-02-11 15:19:01+00:00,259.8431,1.56,13.13,47.84626,-54.09684
2021-02-11 15:29:01+00:00,252.0181,1.59,13.13,47.84626,-54.09684
2021-02-11 15:39:01+00:00,244.2681,1.6,13.13,47.84626,-54.09684
2021-02-11 15:49:01+00:00,234.9398,1.57,13.13,47.84626,-54.09684
2021-02-11 15:59:01+00:00,225.5248,1.57,13.13,47.84626,-54.09684
2021-02-11 16:09:01+00:00,219.2398,1.58,13.13,47.84626,-54.09684
2021-02-11 16:19:01+00:00,215.5081,1.6,13.44,47.84626,-54.09684
2021-02-11 16:29:01+00:00,210.4115,1.6,13.44,47.84626,-54.09684
2021-02-11 16:39:01+00:00,202.6431,1.6,13.44,47.84626,-54.09684
2021-02-11 16:49:01+00:00,197.0115,1.6,13.44,47.84626,-54.09684
2021-02-11 16:59:01+00:00,195.7581,1.5,13.44,47.84626,-54.09684
2021-02-11 17:09:01+00:00,193.3282,1.4,13.44,47.84626,-54.09684
2021-02-11 17:19:01+00:00,189.4665,1.4,13.6,47.84626,-54.09684
2021-02-11 17:29:01+00:00,189.1565,1.4,13.6,47.84626,-54.09684
2021-02-11 17:39:01+00:00,191.0948,1.4,13.6,47.84626,-54.09684
2021-02-11 17:49:01+00:00,188.1565,1.4,13.6,47.84626,-54.09684
2021-02-11 17:59:01+00:00,186.9064,1.4,13.6,47.84626,-54.09684
2021-02-11 18:09:01+00:00,191.6281,1.41,13.6,47.84626,-54.09684
2021-02-11 18:19:01+00:00,191.6365,1.43,13.6,47.84626,-54.09684
2021-02-11 18:29:01+00:00,188.8398,1.44,13.6,47.84626,-54.09684
2021-02-11 18:39:01+00:00,192.8082,1.46,13.6,47.84626,-54.09684
2021-02-11 18:49:01+00:00,198.0464,1.48,13.6,47.84626,-54.09684
2021-02-11 18:59:01+00:00,198.9848,1.48,13.6,47.84626,-54.09684
2021-02-11 19:09:01+00:00,202.5665,1.48,13.6,47.84626,-54.09684
2021-02-11 19:19:01+00:00,212.9665,1.5,13.37,47.84626,-54.09684
2021-02-11 19:29:01+00:00,217.9064,1.52,13.37,47.84626,-54.09684
2021-02-11 19:39:01+00:00,217.8414,1.51,13.37,47.84626,-54.09684
2021-02-11 19:49:01+00:00,225.3198,1.51,13.37,47.84626,-54.09684
2021-02-11 19:59:01+00:00,234.4581,1.6,13.37,47.84626,-54.09684
2021-02-11 20:09:01+00:00,235.1231,1.6,13.37,47.84626,-54.09684
2021-02-11 20:19:01+00:00,237.2864,1.58,12.97,47.84626,-54.09684
2021-02-11 20:29:01+00:00,246.8881,1.54,12.97,47.84626,-54.09684
2021-02-11 20:39:01+00:00,257.6813,1.54,12.97,47.84626,-54.09684
2021-02-11 20:49:01+00:00,260.5997,1.59,12.97,47.84626,-54.09684
2021-02-11 20:59:01+00:00,262.0497,1.6,12.97,47.84626,-54.09684
2021-02-11 21:09:01+00:00,270.8547,1.6,12.97,47.84626,-54.09684
2021-02-11 21:19:01+00:00,280.4647,1.5,12.73,47.84626,-54.09684
2021-02-11 21:29:01+00:00,281.9314,1.51,12.73,47.84626,-54.09684
2021-02-11 21:39:01+00:00,283.5281,1.5,12.73,47.84626,-54.09684
2021-02-11 21:49:01+00:00,295.2014,1.49,12.73,47.84626,-54.09684
2021-02-11 21:59:01+00:00,307.1947,1.5,12.73,47.84626,-54.09684
2021-02-11 22:09:01+00:00,308.2514,1.49,12.73,47.84626,-54.09684
2021-02-11 22:19:01+00:00,313.7097,1.4,12.65,47.84626,-54.09684
2021-02-11 22:29:01+00:00,325.8113,1.4,12.65,47.84626,-54.09684
2021-02-11 22:39:01+00:00,331.9480000000001,1.4,12.65,47.84626,-54.09684
2021-02-11 22:49:01+00:00,333.6346,1.4,12.65,47.84626,-54.09684
2021-02-11 22:59:01+00:00,337.2697,1.41,12.65,47.84626,-54.09684
2021-02-11 23:09:01+00:00,344.9046,1.43,12.65,47.84626,-54.09684
2021-02-11 23:19:01+00:00,349.2346,1.4,12.65,47.84626,-54.09684
2021-02-11 23:29:01+00:00,350.7363,1.42,12.65,47.84626,-54.09684
2021-02-11 23:39:01+00:00,354.668,1.4,12.65,47.84626,-54.09684
2021-02-11 23:49:01+00:00,355.1413,1.4,12.65,47.84626,-54.09684
2021-02-11 23:59:01+00:00,358.4196,1.46,12.65,47.84626,-54.09684
